{"data":{"norad_id":55781,"epoch":"2026-09-20T19:36:35.248896Z","epoch_age_seconds":75681,"freshness":"FRESH","line1":"1 55781U 23028AS  26263.81707464  .00000208  00000+0  25213-4 0  9993","line2":"2 55781  69.9983  92.4118 0002711 267.4554  92.6294 14.98328976195768","mean_motion":14.98328976,"eccentricity":0.0002711,"inclination_deg":69.9983,"raan_deg":92.4118,"arg_perigee_deg":267.4554,"mean_anomaly_deg":92.6294,"bstar":2.5213e-5,"rev_number":19576,"period_min":96.107064807909,"perigee_km":570.17485943054,"apogee_km":573.94325573296,"semimajor_km":6950.1960575818,"source":"CELESTRAK","updated_at":"2026-09-21T09:00:33.319452Z"}}